Change the Weather History Date:

Sunday, January 15, 2012

  Actual Average (KDRO) Record (KDRO)
Temperature  
Mean Temperature 26 °F 23 °F  
Max Temperature 42 °F 38 °F 55 °F (2000)
Min Temperature 10 °F 9 °F -21 °F (2013)
Degree Days  
Heating Degree Days 39 42  
Month to date heating degree days 629  
Since 1 July heating degree days 3503  
Cooling Degree Days 0 0  
Month to date cooling degree days 0  
Year to date cooling degree days 0  
Moisture  
Dew Point 6 °F    
Average Humidity 48    
Maximum Humidity 76    
Minimum Humidity 19    
Precipitation  
Precipitation 0.00 in 0.04 in 1.14 in (1978)
Month to date precipitation 0.54  
Year to date precipitation 0.54  
Sea Level Pressure  
Sea Level Pressure 30.13 in    
Wind  
Wind Speed 1 mph (SSW)    
Max Wind Speed 15 mph    
Max Gust Speed 21 mph    
Visibility 10 miles    
Events      
T = Trace of Precipitation, MM = Missing Value Source: NWS Daily Summary

Daily Weather History Graph

Daily Weather History Graph

Search for Another Location

Airport or City:

Trip Planner

Search our weather history database for the weather conditions in past years. The results will help you decide how hot, cold, wet, or windy it might be!

Date:

Astronomy

Jan. 15, 2012 Rise Set
Actual Time 7:21 AM MST 5:14 PM MST
Civil Twilight 6:52 AM MST 5:42 PM MST
Nautical Twilight 6:20 AM MST 6:14 PM MST
Astronomical Twilight 5:49 AM MST 6:45 PM MST
Moon No Moon Rise 10:51 AM MST (1/15)
Length of Visible Light 10h 49m
Length of Day
9h 52m
Waning Gibbous, 57% of the Moon is Illuminated
Jan 15
Waning Gibbous
Jan 16
Last Quarter
Jan 23
New
Jan 30
First Quarter
Feb 7
Full

Hourly Weather History & Observations

Time (MST) Temp. Windchill Dew Point Humidity Pressure Visibility Wind Dir Wind Speed Gust Speed Precip Events Conditions
12:15 AM 16.2 °F - 6.6 °F 66% 30.24 in 10.0 mi Calm Calm - N/A   Clear
12:35 AM 15.4 °F - 6.4 °F 68% 30.24 in 10.0 mi Calm Calm - N/A   Clear
12:55 AM 15.6 °F - 5.2 °F 63% 30.23 in 10.0 mi Calm Calm - N/A   Clear
1:15 AM 14.2 °F - 5.2 °F 67% 30.22 in 10.0 mi Calm Calm - N/A   Clear
1:35 AM 14.7 °F - 5.7 °F 68% 30.22 in 10.0 mi Calm Calm - N/A   Clear
1:55 AM 15.8 °F - 6.1 °F 66% 30.22 in 10.0 mi Calm Calm - N/A   Clear
2:15 AM 13.3 °F - 5.7 °F 72% 30.22 in 10.0 mi Calm Calm - N/A   Clear
2:35 AM 16.3 °F - 5.5 °F 63% 30.21 in 10.0 mi Calm Calm - N/A   Clear
3:15 AM 13.8 °F - 5.7 °F 70% 30.20 in 10.0 mi Calm Calm - N/A   Clear
3:35 AM 15.4 °F - 5.4 °F 64% 30.20 in 10.0 mi Calm Calm - N/A   Clear
3:55 AM 16.7 °F - 5.4 °F 61% 30.19 in 10.0 mi Calm Calm - N/A   Clear
4:15 AM 12.6 °F - 4.1 °F 69% 30.19 in 10.0 mi Calm Calm - N/A   Clear
4:35 AM 13.8 °F - 5.2 °F 69% 30.19 in 10.0 mi Calm Calm - N/A   Clear
4:55 AM 13.1 °F - 4.3 °F 68% 30.18 in 10.0 mi Calm Calm - N/A   Clear
5:15 AM 13.3 °F - 4.8 °F 69% 30.18 in 10.0 mi Calm Calm - N/A   Clear
5:35 AM 14.5 °F - 5.2 °F 66% 30.19 in 10.0 mi Calm Calm - N/A   Clear
5:55 AM 11.5 °F - 4.5 °F 73% 30.19 in 10.0 mi Calm Calm - N/A   Clear
6:15 AM 11.1 °F - 4.5 °F 75% 30.19 in 10.0 mi Calm Calm - N/A   Clear
6:35 AM 10.2 °F - 4.1 °F 76% 30.19 in 10.0 mi Calm Calm - N/A   Clear
6:55 AM 11.3 °F - 3.9 °F 72% 30.18 in 10.0 mi Calm Calm - N/A   Clear
7:15 AM 11.5 °F - 4.5 °F 73% 30.17 in 10.0 mi Calm Calm - N/A   Clear
7:35 AM 14.4 °F - 4.8 °F 66% 30.17 in 10.0 mi Calm Calm - N/A   Clear
7:55 AM 13.5 °F - 5.0 °F 69% 30.17 in 10.0 mi Calm Calm - N/A   Clear
8:15 AM 12.6 °F - 5.0 °F 72% 30.17 in 10.0 mi Calm Calm - N/A   Clear
8:35 AM 17.4 °F - 4.8 °F 58% 30.17 in 10.0 mi Calm Calm - N/A   Clear
8:55 AM 19.2 °F - 5.9 °F 56% 30.18 in 10.0 mi Calm Calm - N/A   Clear
9:15 AM 20.8 °F - 7.0 °F 55% 30.18 in 10.0 mi Calm Calm - N/A   Clear
9:35 AM 24.4 °F - 5.9 °F 45% 30.18 in 10.0 mi Calm Calm - N/A   Clear
9:55 AM 27.1 °F - 6.1 °F 41% 30.18 in 10.0 mi Calm Calm - N/A   Clear
10:15 AM 28.8 °F - 5.0 °F 36% 30.17 in 10.0 mi Calm Calm - N/A   Clear
10:35 AM 30.6 °F - 4.8 °F 34% 30.17 in 10.0 mi Calm Calm - N/A   Clear
11:15 AM 34.2 °F - 5.5 °F 30% 30.16 in 10.0 mi Calm Calm - N/A   Clear
11:35 AM 35.1 °F - 4.5 °F 28% 30.14 in 10.0 mi Calm Calm - N/A   Clear
11:55 AM 35.8 °F - 5.4 °F 28% 30.14 in 10.0 mi Calm Calm - N/A   Clear
12:15 PM 38.1 °F 33.7 °F 5.7 °F 26% 30.13 in 10.0 mi South 5.8 mph - N/A   Clear
12:35 PM 39.2 °F - 3.7 °F 23% 30.11 in 10.0 mi Calm Calm - N/A   Clear
12:55 PM 39.9 °F 35.1 °F 6.4 °F 25% 30.09 in 10.0 mi South 6.9 mph - N/A   Clear
1:15 PM 39.4 °F 37.2 °F 6.8 °F 26% 30.07 in 10.0 mi South 3.5 mph - N/A   Scattered Clouds
1:35 PM 39.9 °F 34.5 °F 7.9 °F 27% 30.06 in 10.0 mi South 8.1 mph - N/A   Scattered Clouds
1:55 PM 41.4 °F 34.7 °F 7.2 °F 24% 30.05 in 10.0 mi SSW 11.5 mph 17.3 mph N/A   Clear
2:15 PM 42.1 °F 36.1 °F 3.6 °F 20% 30.05 in 10.0 mi SW 10.4 mph 17.3 mph N/A   Scattered Clouds
2:35 PM 41.7 °F 34.1 °F 4.3 °F 21% 30.04 in 10.0 mi SSW 15.0 mph 20.7 mph N/A   Mostly Cloudy
2:55 PM 41.7 °F 35.2 °F 1.6 °F 19% 30.05 in 10.0 mi SW 11.5 mph 20.7 mph N/A   Mostly Cloudy
3:15 PM 41.2 °F 35.5 °F 1.8 °F 19% 30.05 in 10.0 mi SW 9.2 mph - N/A   Overcast
3:35 PM 40.1 °F 33.6 °F 1.8 °F 20% 30.04 in 10.0 mi SW 10.4 mph - N/A   Overcast
3:55 PM 38.8 °F 33.8 °F 5.4 °F 25% 30.04 in 10.0 mi WSW 6.9 mph - N/A   Scattered Clouds
4:15 PM 38.8 °F 35.4 °F 3.7 °F 23% 30.04 in 10.0 mi SW 4.6 mph - N/A   Mostly Cloudy
4:35 PM 38.7 °F - 3.9 °F 23% 30.04 in 10.0 mi Calm Calm - N/A   Overcast
4:55 PM 38.1 °F 35.7 °F 6.8 °F 27% 30.04 in 10.0 mi South 3.5 mph - N/A   Overcast
5:15 PM 36.5 °F - 10.9 °F 35% 30.04 in 10.0 mi Calm Calm - N/A   Overcast
5:35 PM 35.2 °F - 16.2 °F 46% 30.04 in 10.0 mi Calm Calm - N/A   Overcast
5:55 PM 34.2 °F - 13.1 °F 42% 30.04 in 10.0 mi Calm Calm - N/A   Overcast
6:15 PM 35.1 °F - 11.3 °F 37% 30.04 in 10.0 mi Calm Calm - N/A   Overcast
6:35 PM 32.7 °F - 15.6 °F 49% 30.05 in 10.0 mi Calm Calm - N/A   Overcast
6:55 PM 33.8 °F - 14.2 °F 45% 30.05 in 10.0 mi Calm Calm - N/A   Overcast
7:15 PM 33.6 °F - 15.8 °F 48% 30.04 in 10.0 mi Calm Calm - N/A   Overcast
7:35 PM 34.2 °F - 12.2 °F 40% 30.04 in 10.0 mi Calm Calm - N/A   Overcast
7:55 PM 33.4 °F - 12.7 °F 42% 30.04 in 10.0 mi Calm Calm - N/A   Overcast
8:15 PM 33.8 °F - 11.7 °F 40% 30.03 in 10.0 mi Calm Calm - N/A   Overcast
8:35 PM 31.8 °F - 15.6 °F 51% 30.02 in 10.0 mi Calm Calm - N/A   Overcast
8:55 PM 32.0 °F - 15.6 °F 51% 30.03 in 10.0 mi Calm Calm - N/A   Overcast
9:15 PM 32.0 °F - 15.6 °F 51% 30.03 in 10.0 mi Calm Calm - N/A   Overcast
9:35 PM 32.0 °F - 17.1 °F 54% 30.02 in 10.0 mi Calm Calm - N/A   Overcast
9:55 PM 32.0 °F - 17.8 °F 56% 30.02 in 10.0 mi Calm Calm - N/A   Overcast
10:15 PM 33.3 °F - 13.1 °F 43% 30.02 in 10.0 mi Calm Calm - N/A   Overcast
10:35 PM 33.6 °F - 14.2 °F 45% 30.01 in 10.0 mi Calm Calm - N/A   Overcast
10:55 PM 31.3 °F - 18.7 °F 60% 30.01 in 10.0 mi Calm Calm - N/A   Overcast
11:15 PM 32.4 °F - 15.1 °F 49% 30.01 in 10.0 mi Calm Calm - N/A   Overcast
11:55 PM 33.1 °F - 20.3 °F 59% 30.00 in 10.0 mi Calm Calm - N/A Snow Light Snow